Monett, MO

11:37 AM CST on December 12, 2019 (GMT -0600)
Monett

Weather History for KHFJ - August, 2019

Change the Weather History Date:

Friday, August 16, 2019

  Actual Average (WUND) Record (WUND)
Temperature  
Mean Temperature 70 °F -  
Max Temperature 75 °F - - (-1)
Min Temperature 66 °F - - (-1)
Cooling Degree Days 6    
Growing Degree Days 20 (Base 50)    
Moisture  
Dew Point 69 °F    
Average Humidity 92    
Maximum Humidity 100    
Minimum Humidity 78    
Precipitation  
Precipitation 0.09 in - - ()
Sea Level Pressure  
Sea Level Pressure 29.98 in    
Wind  
Wind Speed 7 mph ()    
Max Wind Speed 17 mph    
Max Gust Speed 25 mph    
Visibility 10.0 miles    
Events Rain , Thunderstorm    
Averages and records for this station are not official NWS values.
T = Trace of Precipitation, MM = Missing Value Source: Averaged Metar Reports

Daily Weather History Graph

Daily Weather History Graph

Search for Another Location

Airport or City:

Astronomy

Aug. 16, 2019 Rise Set
Actual Time 6:33 AM CDT 8:06 PM CDT
Civil Twilight 6:06 AM CDT 8:33 PM CDT
Nautical Twilight 5:33 AM CDT 9:06 PM CDT
Astronomical Twilight 4:58 AM CDT 9:41 PM CDT
Moon 9:07 PM CDT (8/16) 7:25 AM CDT (8/16)
Length of Visible Light 14h 27m
Length of Day
13h 32m
Full, 99% of the Moon is Illuminated
Aug 16
Full
Aug 23
Last Quarter
Aug 30
New
Sep 5
First Quarter
Sep 13
Full

Hourly Weather History & Observations

Time (CDT) Temp. Dew Point Humidity Pressure Visibility Wind Dir Wind Speed Gust Speed Precip Events Conditions
12:15 AM 75.2 °F 69.8 °F 83% 29.99 in 10.0 mi SE 6.9 mph - N/A   Clear
12:35 AM 73.4 °F 69.8 °F 88% 29.99 in 10.0 mi SSE 6.9 mph - N/A   Clear
12:55 AM 73.4 °F 69.8 °F 88% 29.96 in 10.0 mi SSE 9.2 mph - N/A   Clear
1:15 AM 73.4 °F 69.8 °F 88% 29.95 in 10.0 mi SSE 8.1 mph - N/A   Clear
1:35 AM 75.2 °F 69.8 °F 83% 29.95 in 10.0 mi SSE 9.2 mph - N/A   Clear
1:55 AM 75.2 °F 69.8 °F 83% 29.96 in 10.0 mi SSE 9.2 mph - N/A   Clear
2:15 AM 75.2 °F 68.0 °F 78% 29.96 in 10.0 mi South 8.1 mph - N/A   Clear
2:35 AM 75.2 °F 68.0 °F 78% 29.96 in 10.0 mi South 8.1 mph - N/A   Clear
2:55 AM 75.2 °F 68.0 °F 78% 29.97 in 10.0 mi South 3.5 mph - N/A   Clear
3:15 AM 75.2 °F 68.0 °F 78% 30.01 in 10.0 mi Calm Calm - N/A   Mostly Cloudy
3:35 AM 73.4 °F 69.8 °F 88% 30.00 in 10.0 mi North 5.8 mph - N/A   Overcast
3:55 AM 73.4 °F 69.8 °F 88% 30.00 in 10.0 mi NE 8.1 mph - N/A   Overcast
4:15 AM 69.8 °F 68.0 °F 94% 30.02 in 10.0 mi NNE 16.1 mph - N/A Thunderstorm Scattered Clouds
4:35 AM 69.8 °F 68.0 °F 94% 30.06 in 10.0 mi North 10.4 mph - N/A   Mostly Cloudy
4:55 AM 68.0 °F 64.4 °F 88% 30.06 in 10.0 mi NNE 9.2 mph - N/A   Overcast
5:15 AM 68.0 °F 64.4 °F 88% 30.02 in 10.0 mi ENE 9.2 mph - N/A Thunderstorm Scattered Clouds
5:35 AM 68.0 °F 62.6 °F 83% 30.01 in 10.0 mi East 6.9 mph - N/A   Clear
5:55 AM 68.0 °F 62.6 °F 83% 30.02 in 10.0 mi East 11.5 mph - N/A Thunderstorm Clear
6:15 AM 68.0 °F 62.6 °F 83% 30.03 in 10.0 mi Calm Calm - N/A Thunderstorm Scattered Clouds
6:35 AM 68.0 °F 62.6 °F 83% 30.04 in 10.0 mi East 6.9 mph - N/A   Scattered Clouds
6:55 AM 68.0 °F 64.4 °F 88% 30.01 in 10.0 mi SE 10.4 mph - N/A Rain , Thunderstorm Thunderstorms and Rain
7:15 AM 66.2 °F 64.4 °F 94% 30.02 in 10.0 mi East 6.9 mph - 0.01 in Rain Light Rain
7:35 AM 66.2 °F 64.4 °F 94% 29.99 in 10.0 mi SE 10.4 mph - 0.02 in Rain , Thunderstorm Rain
7:55 AM 68.0 °F 64.4 °F 88% 30.00 in 10.0 mi East 11.5 mph - 0.02 in Thunderstorm Clear
8:15 AM 68.0 °F 64.4 °F 88% 30.04 in 10.0 mi NE 3.5 mph - N/A   Mostly Cloudy
8:35 AM 69.8 °F 64.4 °F 83% 30.06 in 10.0 mi East 6.9 mph - N/A Rain , Thunderstorm Light Thunderstorms and Rain
8:55 AM 68.0 °F 66.2 °F 94% 30.07 in 10.0 mi ENE 11.5 mph - 0.01 in Rain , Thunderstorm Light Thunderstorms and Rain
9:15 AM 68.0 °F 66.2 °F 94% 30.12 in 10.0 mi NE 10.4 mph - 0.01 in Rain , Thunderstorm Light Thunderstorms and Rain
9:35 AM 68.0 °F 66.2 °F 94% 30.11 in 10.0 mi East 12.7 mph - 0.01 in Rain Light Rain
10:00 AM 68.0 °F 66.2 °F 94% 30.09 in 10.0 mi ESE 10.4 mph 16.1 mph N/A Rain , Thunderstorm Light Thunderstorms and Rain
10:20 AM 68.0 °F 64.4 °F 88% 30.03 in 10.0 mi SE 17.3 mph 25.3 mph N/A Rain Light Rain
10:35 AM 68.0 °F 64.4 °F 88% 30.08 in 10.0 mi SSE 4.6 mph - 0.01 in Rain Light Rain
10:55 AM 68.0 °F 66.2 °F 94% 30.09 in 10.0 mi Calm Calm - 0.01 in Rain Light Rain
11:15 AM 68.0 °F 66.2 °F 94% 30.10 in 10.0 mi East 9.2 mph - 0.01 in Rain , Thunderstorm Light Thunderstorms and Rain
11:35 AM 68.0 °F 68.0 °F 100% 30.08 in 10.0 mi East 8.1 mph - 0.02 in Rain , Thunderstorm Light Thunderstorms and Rain
11:55 AM 68.0 °F 68.0 °F 100% 30.07 in 10.0 mi ESE 8.1 mph - 0.03 in Rain Light Rain
12:15 PM 68.0 °F 68.0 °F 100% 30.05 in 10.0 mi ESE 8.1 mph - N/A Rain , Thunderstorm Rain
12:35 PM 68.0 °F 68.0 °F 100% 30.02 in 10.0 mi ESE 11.5 mph 17.3 mph 0.01 in Rain Light Rain
12:55 PM 69.8 °F 68.0 °F 94% 30.03 in 10.0 mi ESE 8.1 mph - 0.01 in Rain Light Rain
1:15 PM 69.8 °F 69.8 °F 100% 30.02 in 10.0 mi SE 8.1 mph - N/A Thunderstorm Thunderstorm
1:35 PM 71.6 °F 69.8 °F 94% 30.02 in 10.0 mi ESE 9.2 mph - N/A Thunderstorm Overcast
1:55 PM 73.4 °F 69.8 °F 88% 30.03 in 10.0 mi SE 8.1 mph - N/A   Mostly Cloudy
2:15 PM 73.4 °F 69.8 °F 88% 30.01 in 10.0 mi SSE 8.1 mph - N/A   Scattered Clouds
2:35 PM 73.4 °F 68.0 °F 83% 30.05 in 10.0 mi SSW 9.2 mph - N/A   Mostly Cloudy
2:55 PM 73.4 °F 69.8 °F 88% 30.04 in 10.0 mi South 6.9 mph - N/A Thunderstorm Mostly Cloudy
3:15 PM 71.6 °F 69.8 °F 94% 30.00 in 10.0 mi SE 4.6 mph - N/A Rain , Thunderstorm Rain
3:35 PM 71.6 °F 69.8 °F 94% 30.01 in 10.0 mi NE 10.4 mph - N/A Rain Light Rain
3:55 PM 69.8 °F 69.8 °F 100% 30.00 in 10.0 mi East 10.4 mph - N/A Rain Rain
4:15 PM 69.8 °F 69.8 °F 100% 29.95 in 10.0 mi ESE 4.6 mph - N/A Rain Light Rain
4:35 PM 71.6 °F 69.8 °F 94% 29.96 in 10.0 mi SSE 5.8 mph - N/A   Clear
4:55 PM 71.6 °F 69.8 °F 94% 29.93 in 10.0 mi ESE 10.4 mph - N/A   Clear
5:15 PM 71.6 °F 69.8 °F 94% 29.91 in 10.0 mi ESE 9.2 mph - N/A   Clear
5:35 PM 73.4 °F 69.8 °F 88% 29.91 in 10.0 mi ESE 9.2 mph - N/A   Clear
5:55 PM 73.4 °F 71.6 °F 94% 29.91 in 10.0 mi SSE 6.9 mph - N/A   Clear
6:15 PM 73.4 °F 71.6 °F 94% 29.89 in 10.0 mi SSE 6.9 mph 19.6 mph N/A   Clear
6:35 PM 73.4 °F 71.6 °F 94% 29.90 in 10.0 mi SE 4.6 mph - N/A   Clear
6:55 PM 73.4 °F 71.6 °F 94% 29.89 in 10.0 mi SSE 5.8 mph - N/A   Clear
7:15 PM 73.4 °F 71.6 °F 94% 29.87 in 10.0 mi ESE 6.9 mph - N/A   Scattered Clouds
7:35 PM 75.2 °F 71.6 °F 89% 29.87 in 10.0 mi East 3.5 mph - N/A   Clear
8:00 PM 73.4 °F 71.6 °F 94% 29.85 in 10.0 mi East 8.1 mph - N/A   Clear
8:15 PM 73.4 °F 71.6 °F 94% 29.84 in 10.0 mi SE 8.1 mph - N/A   Clear
8:35 PM 73.4 °F 71.6 °F 94% 29.88 in 10.0 mi East 3.5 mph - N/A   Clear
8:55 PM 71.6 °F 71.6 °F 100% 29.88 in 10.0 mi ENE 3.5 mph - N/A   Clear
9:15 PM 71.6 °F 71.6 °F 100% 29.88 in 10.0 mi ESE 4.6 mph - N/A   Clear
9:35 PM 71.6 °F 71.6 °F 100% 29.89 in 10.0 mi SE 5.8 mph - N/A   Clear
9:55 PM 71.6 °F 71.6 °F 100% 29.89 in 10.0 mi ESE 6.9 mph - N/A   Clear
10:15 PM 71.6 °F 71.6 °F 100% 29.90 in 10.0 mi ENE 8.1 mph - N/A   Clear
10:35 PM 71.6 °F 71.6 °F 100% 29.90 in 10.0 mi East 6.9 mph - N/A   Clear
10:55 PM 71.6 °F 71.6 °F 100% 29.91 in 10.0 mi East 9.2 mph - N/A   Clear
11:15 PM 71.6 °F 71.6 °F 100% 29.92 in 10.0 mi East 6.9 mph - N/A   Clear
11:35 PM 71.6 °F 71.6 °F 100% 29.92 in 10.0 mi East 8.1 mph - N/A   Clear
11:55 PM 71.6 °F 71.6 °F 100% 29.93 in 10.0 mi East 8.1 mph - N/A   Clear